| time (UTC) | temp F | wind direction | speed MPH | gust MPH | rain 1hr in | rain 24hr in | rain mn in | humidity % | barometer mb |
| 20260906094501 | 57 | 96 | 0.0 | 0.0 | 0.00 | 0.00 | 0.00 | 59 | 1002.6 |
| 20260906093022 | 56 | 96 | 0.0 | 0.0 | 0.00 | 0.00 | 0.00 | 59 | 1002.5 |
| 20260906091507 | 56 | 96 | 0.0 | 0.0 | 0.00 | 0.00 | 0.00 | 60 | 1002.5 |
| 20260906090116 | 56 | 96 | 0.0 | 0.0 | 0.00 | 0.00 | 0.00 | 61 | 1002.4 |
| 20260906084504 | 57 | 92 | 0.0 | 0.0 | 0.00 | 0.00 | 0.00 | 59 | 1002.2 |
| 20260906083004 | 58 | 86 | 0.0 | 0.0 | 0.00 | 0.00 | 0.00 | 58 | 1002.3 |
| 20260906081521 | 58 | 51 | 0.0 | 0.0 | 0.00 | 0.00 | 0.00 | 56 | 1002.4 |
| 20260906080020 | 58 | 94 | 0.0 | 0.0 | 0.00 | 0.00 | 0.00 | 57 | 1002.4 |
| 20260906074533 | 59 | 42 | 0.0 | 1.0 | 0.00 | 0.00 | 0.00 | 56 | 1002.4 |
| 20260906073103 | 58 | 27 | 0.0 | 0.0 | 0.00 | 0.00 | 0.00 | 58 | 1002.5 |
| 20260906071609 | 59 | 34 | 0.0 | 0.0 | 0.00 | 0.00 | 0.00 | 56 | 1002.5 |
| 20260906070120 | 59 | 33 | 0.0 | 0.0 | 0.00 | 0.00 | 0.00 | 56 | 1002.6 |
| 20260906064605 | 59 | 32 | 0.0 | 0.0 | 0.00 | 0.00 | 0.00 | 58 | 1002.6 |
| 20260906063001 | 60 | 282 | 0.0 | 0.0 | 0.00 | 0.00 | 0.00 | 55 | 1002.4 |
| 20260906061508 | 61 | 282 | 0.0 | 0.0 | 0.00 | 0.00 | 0.00 | 55 | 1002.4 |
| 20260906060021 | 63 | 193 | 0.0 | 1.0 | 0.00 | 0.00 | 0.00 | 51 | 1002.5 |
| 20260906054544 | 63 | 150 | 0.0 | 0.0 | 0.00 | 0.00 | 0.00 | 50 | 1002.5 |
| 20260906053056 | 63 | 145 | 0.0 | 3.0 | 0.00 | 0.00 | 0.00 | 50 | 1002.5 |
| 20260906051600 | 63 | 122 | 0.0 | 9.0 | 0.00 | 0.00 | 0.00 | 51 | 1002.7 |
| 20260906050111 | 63 | 166 | 0.0 | 7.0 | 0.00 | 0.00 | 0.00 | 51 | 1002.7 |
| 20260906044558 | 63 | 145 | 0.0 | 5.0 | 0.00 | 0.00 | 0.00 | 50 | 1002.8 |
| 20260906043112 | 63 | 147 | 0.0 | 6.0 | 0.00 | 0.00 | 0.00 | 50 | 1002.8 |
| 20260906041502 | 60 | 178 | 0.0 | 0.0 | 0.00 | 0.00 | 0.00 | 53 | 1003.0 |
| 20260906040010 | 60 | 176 | 0.0 | 0.0 | 0.00 | 0.00 | 0.00 | 54 | 1002.8 |
| 20260906034520 | 60 | 184 | 0.0 | 0.0 | 0.00 | 0.00 | 0.00 | 53 | 1002.9 |
| 20260906033039 | 62 | 186 | 0.0 | 0.0 | 0.00 | 0.00 | 0.00 | 50 | 1002.8 |
| 20260906031532 | 63 | 186 | 0.0 | 0.0 | 0.00 | 0.00 | 0.00 | 47 | 1002.8 |
| 20260906030113 | 64 | 186 | 0.0 | 0.0 | 0.00 | 0.00 | 0.00 | 45 | 1002.5 |
| 20260906024610 | 64 | 242 | 0.0 | 0.0 | 0.00 | 0.00 | 0.00 | 44 | 1002.2 |
| 20260906023132 | 65 | 126 | 0.0 | 1.0 | 0.00 | 0.00 | 0.00 | 43 | 1002.0 |
| 20260906021615 | 65 | 148 | 0.0 | 0.0 | 0.00 | 0.00 | 0.00 | 43 | 1001.9 |
| 20260906020104 | 65 | 137 | 0.0 | 6.0 | 0.00 | 0.00 | 0.00 | 43 | 1001.7 |
| 20260906014626 | 66 | 131 | 0.0 | 11.0 | 0.00 | 0.00 | 0.00 | 43 | 1001.6 |
| 20260906013108 | 66 | 145 | 0.0 | 8.0 | 0.00 | 0.00 | 0.00 | 44 | 1001.6 |
| 20260906011604 | 67 | 147 | 0.0 | 11.0 | 0.00 | 0.00 | 0.00 | 43 | 1001.6 |
| 20260906010106 | 68 | 154 | 0.0 | 10.0 | 0.00 | 0.00 | 0.00 | 42 | 1001.5 |
| 20260906004614 | 69 | 146 | 1.0 | 14.0 | 0.00 | 0.00 | 0.00 | 39 | 1001.5 |
| 20260906003055 | 70 | 122 | 0.0 | 11.0 | 0.00 | 0.00 | 0.00 | 37 | 1001.6 |
| 20260906001559 | 69 | 136 | 0.0 | 1.0 | 0.00 | 0.00 | 0.00 | 40 | 1001.5 |
| 20260906000114 | 69 | 126 | 0.0 | 8.0 | 0.00 | 0.00 | 0.00 | 39 | 1001.7 |
| 20260905234511 | 70 | 148 | 0.0 | 11.0 | 0.00 | 0.00 | 0.00 | 39 | 1001.5 |
| 20260905233041 | 70 | 140 | 0.0 | 10.0 | 0.00 | 0.00 | 0.00 | 38 | 1001.4 |
| 20260905231530 | 70 | 141 | 0.0 | 10.0 | 0.00 | 0.00 | 0.00 | 40 | 1001.2 |
| 20260905230049 | 70 | 121 | 1.0 | 13.0 | 0.00 | 0.00 | 0.00 | 39 | 1001.3 |
| 20260905224607 | 71 | 160 | 0.0 | 1.0 | 0.00 | 0.00 | 0.00 | 39 | 1001.4 |
| 20260905223054 | 71 | 134 | 1.0 | 9.0 | 0.00 | 0.00 | 0.00 | 39 | 1001.4 |
| 20260905221559 | 72 | 97 | 0.0 | 3.0 | 0.00 | 0.00 | 0.00 | 38 | 1001.5 |
| 20260905220003 | 72 | 169 | 1.0 | 12.0 | 0.00 | 0.00 | 0.00 | 36 | 1001.6 |
| 20260905214513 | 72 | 148 | 0.0 | 11.0 | 0.00 | 0.00 | 0.00 | 38 | 1001.4 |
| 20260905213107 | 69 | 140 | 2.0 | 14.0 | 0.00 | 0.00 | 0.00 | 40 | 1001.6 |
| 20260905211611 | 70 | 109 | 1.0 | 14.0 | 0.00 | 0.00 | 0.00 | 38 | 1001.9 |
| 20260905210009 | 72 | 134 | 0.0 | 10.0 | 0.00 | 0.00 | 0.00 | 37 | 1001.9 |
| 20260905204555 | 73 | 142 | 0.0 | 0.0 | 0.00 | 0.00 | 0.00 | 35 | 1002.0 |
| 20260905203103 | 73 | 299 | 0.0 | 0.0 | 0.00 | 0.00 | 0.00 | 34 | 1002.1 |
| 20260905201611 | 73 | 320 | 0.0 | 0.0 | 0.00 | 0.00 | 0.00 | 33 | 1002.0 |
| 20260905200005 | 73 | 319 | 0.0 | 0.0 | 0.00 | 0.00 | 0.00 | 31 | 1002.0 |
| 20260905194517 | 74 | 317 | 0.0 | 0.0 | 0.00 | 0.00 | 0.00 | 30 | 1002.0 |
| 20260905193041 | 75 | 227 | 0.0 | 0.0 | 0.00 | 0.00 | 0.00 | 30 | 1002.2 |
| 20260905191535 | 73 | 305 | 0.0 | 1.0 | 0.00 | 0.00 | 0.00 | 32 | 1002.3 |
| 20260905190039 | 73 | 282 | 0.0 | 0.0 | 0.00 | 0.00 | 0.00 | 33 | 1002.4 |
| 20260905184554 | 74 | 277 | 0.0 | 0.0 | 0.00 | 0.00 | 0.00 | 32 | 1002.5 |
| 20260905183105 | 75 | 294 | 0.0 | 0.0 | 0.00 | 0.00 | 0.00 | 30 | 1002.7 |
| 20260905181516 | 74 | 154 | 0.0 | 0.0 | 0.00 | 0.00 | 0.00 | 31 | 1003.0 |
| 20260905180104 | 74 | 332 | 0.0 | 0.0 | 0.00 | 0.00 | 0.00 | 30 | 1003.3 |
| 20260905174601 | 74 | 292 | 0.0 | 0.0 | 0.00 | 0.00 | 0.00 | 32 | 1003.4 |
| 20260905173050 | 72 | 277 | 0.0 | 0.0 | 0.00 | 0.00 | 0.00 | 33 | 1003.5 |
| 20260905171551 | 71 | 242 | 0.0 | 0.0 | 0.00 | 0.00 | 0.00 | 34 | 1003.6 |
| 20260905170004 | 71 | 0.0 | 327.0 | 3.27 | 3.27 | 0.00 | 34 | 1003.7 | |
| 20260905164519 | 70 | 265 | 0.0 | 0.0 | 0.00 | 0.00 | 0.00 | 38 | 1003.6 |
| 20260905163135 | 69 | 296 | 0.0 | 0.0 | 0.00 | 0.00 | 0.00 | 37 | 1003.6 |
| 20260905161550 | 68 | 26 | 0.0 | 0.0 | 0.00 | 0.00 | 0.00 | 39 | 1003.7 |
| 20260905160106 | 67 | 24 | 0.0 | 0.0 | 0.00 | 0.00 | 0.00 | 41 | 1003.7 |
| 20260905154554 | 65 | 39 | 0.0 | 0.0 | 0.00 | 0.00 | 0.00 | 44 | 1003.7 |
| 20260905153111 | 64 | 322 | 0.0 | 0.0 | 0.00 | 0.00 | 0.00 | 45 | 1003.7 |
| 20260905151610 | 62 | 351 | 0.0 | 0.0 | 0.00 | 0.00 | 0.00 | 47 | 1003.8 |
| 20260905150004 | 61 | 38 | 0.0 | 0.0 | 0.00 | 0.00 | 0.00 | 50 | 1003.9 |
| 20260905144521 | 61 | 38 | 0.0 | 0.0 | 0.00 | 0.00 | 0.00 | 48 | 1003.9 |
| 20260905143041 | 61 | 319 | 0.0 | 0.0 | 0.00 | 0.00 | 0.00 | 49 | 1003.9 |
| 20260905141532 | 61 | 318 | 0.0 | 0.0 | 0.00 | 0.00 | 0.00 | 50 | 1003.7 |
| 20260905140022 | 60 | 79 | 0.0 | 0.0 | 0.00 | 0.00 | 0.00 | 53 | 1003.7 |
| 20260905134548 | 58 | 59 | 0.0 | 0.0 | 0.00 | 0.00 | 0.00 | 54 | 1003.5 |
| 20260905133107 | 56 | 82 | 0.0 | 0.0 | 0.00 | 0.00 | 0.00 | 58 | 1003.6 |
| 20260905131612 | 56 | 82 | 0.0 | 0.0 | 0.00 | 0.00 | 0.00 | 59 | 1003.5 |
| 20260905130013 | 57 | 25 | 0.0 | 0.0 | 0.00 | 0.00 | 0.00 | 57 | 1003.5 |
| 20260905124517 | 57 | 75 | 0.0 | 4.0 | 0.00 | 0.00 | 0.00 | 59 | 1003.3 |
| 20260905123016 | 57 | 63 | 0.0 | 0.0 | 0.00 | 0.00 | 0.00 | 59 | 1003.1 |
| 20260905121550 | 56 | 88 | 0.0 | 0.0 | 0.00 | 0.00 | 0.00 | 61 | 1003.0 |
| 20260905120049 | 54 | 142 | 0.0 | 0.0 | 0.00 | 0.00 | 0.00 | 65 | 1003.0 |
| 20260905114555 | 54 | 141 | 0.0 | 0.0 | 0.00 | 0.00 | 0.00 | 66 | 1003.0 |
| 20260905113008 | 53 | 142 | 0.0 | 0.0 | 0.00 | 0.00 | 0.00 | 67 | 1003.0 |
| 20260905111601 | 53 | 142 | 0.0 | 0.0 | 0.00 | 0.00 | 0.00 | 66 | 1003.1 |
| 20260905110100 | 53 | 141 | 0.0 | 0.0 | 0.00 | 0.00 | 0.00 | 67 | 1003.0 |
| 20260905104506 | 53 | 142 | 0.0 | 0.0 | 0.00 | 0.00 | 0.00 | 67 | 1003.0 |
| 20260905103111 | 53 | 141 | 0.0 | 0.0 | 0.00 | 0.00 | 0.00 | 66 | 1002.9 |
| 20260905101508 | 54 | 141 | 0.0 | 0.0 | 0.00 | 0.00 | 0.00 | 65 | 1002.7 |
| 20260905100019 | 54 | 141 | 0.0 | 0.0 | 0.00 | 0.00 | 0.00 | 65 | 1002.7 |